Regional Weather Roundup
Issued by NWS Newport/Morehead, NC

Current Version | Previous Version | Graphics & Text | Print | Product List | Glossary On
Versions: 1 2 3 4 5 6 7 8 9 10 11 12 13 14 15 16 17 18 19 20 21 22 23 24 25 26 27 28 29 30 31 32 33 34 35 36 37 38 39 40 41 42 43 44 45 46 47 48 49 50
000
ASUS42 KMHX 070025
RWRMHX
WEATHER ROUNDUP FOR EASTERN NORTH CAROLINA
NATIONAL WEATHER SERVICE NEWPORT/MOREHEAD CITY NC
800 PM EDT FRI MAY 06 2016

NOTE: "FAIR" INDICATES FEW OR NO CLOUDS BELOW 12,000 FEET
WITH NO SIGNIFICANT WEATHER AND/OR OBSTRUCTIONS TO VISIBILITY

NCZ015>017-031-032-045>047-102-103-070100-
NORTH COAST

CITY           SKY/WX    TMP DP  RH WIND       PRES   REMARKS
EDENTON        CLOUDY    58  57  97 NW5       29.79R
ELIZABETH CITY LGT RAIN  56  53  90 NW10      29.76R
KITTY HAWK     MOCLDY    56  50  79 CALM      29.75R
MANTEO         CLOUDY    58  54  86 CALM      29.76R

$$

NCZ045>047-081-094-103-104-070100-
CENTRAL COAST

CITY           SKY/WX    TMP DP  RH WIND       PRES   REMARKS
FRISCO         CLOUDY    61  51  70 W7        29.76R
SWANQUARTER    NOT AVBL

$$

NCZ095-097-098-100-101-070100-
SOUTHERN COAST

CITY           SKY/WX    TMP DP  RH WIND       PRES   REMARKS
BEAUFORT       MOCLDY    62  51  67 W10       29.78R
CEDAR ISLAND   NOT AVBL
JACKSONVILLE   CLOUDY    63  50  62 NW6       29.77R
PINEY ISLAND   MOCLDY   N/A N/A N/A W7        29.76R
WILMINGTON     PTCLDY    61  50  67 SW7       29.79R


$$

NCZ011>013-027>030-043-044-078>080-089-090>093-098-070100-
COASTAL PLAIN

CITY           SKY/WX    TMP DP  RH WIND       PRES   REMARKS
AHOSKIE        LGT RAIN  55  52  91 CALM      29.79R
CLINTON        PTCLDY    61  52  72 N5        29.81R
ELIZABETHTOWN  PTCLDY    60  55  82 CALM      29.80R
GOLDSBORO      CLOUDY    57  55  94 W6        29.78R
GREENVILLE     CLOUDY    61  55  82 W5        29.80R
HAVELOCK       MOCLDY    61  51  70 W7        29.78R
KENANSVILLE    CLOUDY    60  48  64 NW8G16    29.81R
KINSTON        PTCLDY    59  55  88 W3        29.79R
NEW BERN       MOCLDY    61  52  72 W5        29.78R
RICHLANDS      CLOUDY    62  53  72 CALM      29.79R
ROCKY MOUNT    LGT RAIN  57  52  83 W6        29.79R
WASHINGTON     CLOUDY    59  55  85 CALM      29.77R
WHITEVILLE     NOT AVBL

$$

AMZ130-135-150-152-154-156-158-170-250-252-270-ANZ085-086-088-633-658-670-070100-
MARINE OBSERVATIONS

STATION/POSITION TIME  TEMP    WIND        PRES    WAVE   SWELL
                       AIR SEA DIR/SP/G            HT/PER HT/PER
                 (UTC) (F)     (DEG/KT/KT) (MB)    (FT/S) (FT/S)
CHESAPEAKE LIGHT 0000   54     180/  9/ 10 1007.7
64 E VA BEACH    2350   53 53   90/  4/  6 1007.1    6/ 9   7/ 9
DUCK             0000   56 58              1006.8
2 E DUCK         2311      60                N/A     5/10   2/11
OREGON INLET     0000   57 62              1007.5
13E OREGON INLT  2300      56                N/A     5/ 9   5/ 9
HATTERAS CG      0000   63 66              1007.5
DIAMOND BUOY     2350   63 74  280/ 10/ 14 1007.7    5/ 9   5/ 9
CAPE LOOKOUT     0000   63     290/  9/ 11 1007.8
BEAUFORT LAB     0000   62 65              1007.4
30 SE NEW RVR IN 2325      73                N/A     4/ 9
27 SE WRIGHTSVLE 0008   67 72  310/ 14/ 17 1008.9
5 SE WRIGHTSVLE  NOT AVBL
225 S CAPE HAT   2350   69 73  290/ 12/ 16 1008.8    8/ 8   7/ 8
41 SE CHARLESTON 2350   69 73  260/ 12/ 16 1008.9    3/ 4   2/10

$$



USA.gov is the U.S. government's official web portal to all federal, state and local government web resources and services.